Tracking 35280 objects as of 7-Sep-2026
HD Live streaming from Space Station
objects crossing your sky now

CSTP-4.4

Track CSTP-4.4 now!
10-day predictions
CSTP-4.4 is classified as:


NORAD ID: 64895
Int'l Code: 2025-155V
Launch date: July 25, 2025
Source: (TBD)
Launch site: VOSTOCHNY COSMODROME (VOSTO)

Uplink (MHz):
Downlink (MHz): 437.320
Beacon (MHz):
Mode: LoRa
Call sign:
Status: Active

Your satellite tracking list
Your tracking list is empty




NASA's NSSDC Master Catalog

Two Line Element Set (TLE):
1 64895U 25155V   26249.57812990  .00005906  00000-0  20107-3 0  9997
2 64895  97.4665 218.4596 0005320 241.3436 118.7270 15.30789495 93198
Source of the keplerian elements: AFSPC